Tracking 23762 objects as of 21-Oct-2021
HD Live streaming from Space Station
objects crossing your sky now

DELTA 2 DEB

Track DELTA 2 DEB now!
10-day predictions


NORAD ID: 26791
Int'l Code: 1992-019D
Perigee: 201.1 km
Apogee: 7,348.9 km
Inclination: 34.7 °
Period: 169.5 minutes
Semi major axis: 10146 km
RCS: 0.015 m2 (small)
Launch date: April 10, 1992
Source: United States (US)
Launch site: AIR FORCE EASTERN TEST RANGE (AFETR)

Note: This is SATELLITE DEBRIS
aabbcc
Your satellite tracking list
Your tracking list is empty




NASA's NSSDC Master Catalog

Two Line Element Set (TLE):
1 26791U 92019D   21290.49831808  .00068972 -14923-6  54539-3 0  9998
2 26791  34.6850   5.7384 3522457 200.9466 140.1181  8.49492002562495
Source of the keplerian elements: AFSPC